This is the latest recevied weather packets stored in our database for station/object W5LND-10. If no packets are shown the sender has not sent any weather packets the latest 10 day(s).
| Time | Temp. | Humidity | Pressure | Rain* | Wind** | Luminosity | Snow |
|---|---|---|---|---|---|---|---|
| 1777762878 | 20.56° C | 43% | 1018.5 hPa | 0 mm | - | 206 W/m² | - |
| 1777762578 | 20.56° C | 43% | 1018.5 hPa | 0 mm | - | 213 W/m² | - |
| 1777762278 | 20.56° C | 44% | 1018.7 hPa | 0 mm | - | 253 W/m² | - |
| 1777761978 | 20.56° C | 44% | 1018.7 hPa | 0 mm | - | 281 W/m² | - |
| 1777761678 | 20.56° C | 44% | 1018.7 hPa | 0 mm | - | 288 W/m² | - |
| 1777761378 | 20.56° C | 44% | 1018.9 hPa | 0 mm | - | 294 W/m² | - |
| 1777761078 | 20.56° C | 44% | 1018.9 hPa | 0 mm | - | 345 W/m² | - |
| 1777760778 | 20° C | 44% | 1018.9 hPa | 0 mm | - | 325 W/m² | - |
| 1777760478 | 20° C | 45% | 1018.9 hPa | 0 mm | - | 294 W/m² | - |
| 1777760178 | 20° C | 45% | 1019 hPa | 0 mm | - | 262 W/m² | - |
| 1777759878 | 20° C | 45% | 1019.1 hPa | 0 mm | - | 236 W/m² | - |
| 1777759578 | 20° C | 44% | 1019.2 hPa | 0 mm | - | 220 W/m² | - |
| 1777759278 | 20° C | 45% | 1019.1 hPa | 0 mm | - | 213 W/m² | - |
| 1777758978 | 20° C | 44% | 1019.3 hPa | 0 mm | - | 207 W/m² | - |
| 1777758678 | 20° C | 44% | 1019.4 hPa | 0 mm | - | 195 W/m² | - |
| 1777758378 | 20° C | 43% | 1019.4 hPa | 0 mm | - | 186 W/m² | - |
| 1777758078 | 20.56° C | 44% | 1019.5 hPa | 0 mm | - | 188 W/m² | - |
| 1777757778 | 20° C | 44% | 1019.6 hPa | 0 mm | - | 188 W/m² | - |
| 1777757478 | 20.56° C | 43% | 1019.7 hPa | 0 mm | - | 192 W/m² | - |
| 1777757178 | 20° C | 44% | 1019.7 hPa | 0 mm | - | 209 W/m² | - |
| 1777756878 | 20° C | 44% | 1019.8 hPa | 0 mm | - | 225 W/m² | - |
| 1777756578 | 20° C | 44% | 1019.9 hPa | 0 mm | - | 232 W/m² | - |
| 1777756278 | 20.56° C | 43% | 1020.1 hPa | 0 mm | - | 230 W/m² | - |
| 1777755978 | 20.56° C | 43% | 1020.1 hPa | 0 mm | - | 237 W/m² | - |
| 1777755678 | 20.56° C | 44% | 1020.2 hPa | 0 mm | - | 243 W/m² | - |
* Rain latest hour (hover to see other rain measurements)
** Current wind speed in m/s (hover to see current wind gust speed)